Powrót do katalogu

STARLINK-1283

AktywnyŁącznośćVLEO
NORAD 45389·PAYLOAD·🇺🇸 United States

Wystrzelony Mar 18, 2020 z Cape Canaveral Space Force Station

Loading…

Następne Przeloty (najbliższe 24 godziny)

TLE

ŚwieżeSource: CelesTrak SupGP

Epoka: Sep 14, 2026, 20:56 UTC

1 45389C 20019AF  26257.87270833  .00178890  00000+0  63376-3 0  2578
2 45389  53.0277 250.8420 0005385  57.4990  14.4761 15.88174667    18

Śledź STARLINK-1283 w czasie rzeczywistym z AllMySat

Download on the App Store